Location: Eymir
(36.7333°N, 29.7833°E)
Time: 17:29:43
(UTC+00:00)

NOAA 12 - Pass Details

Date: 14 January 2026
Orbit: 793 x 813 km, 98.6° (Epoch: 17 February)

Event Time Altitude Azimuth Distance (km) Brightness Sun altitude
Rises 03:26:45 0° 7° (N) 3,299 7.2 -20.9°
Reaches altitude 10° 03:29:07 10° 4° (N) 2,365 6.4 -20.4°
Maximum altitude 03:34:12 55° 287° (WNW) 946 4.1 -19.4°
Drops below altitude 10° 03:39:16 10° 211° (SSW) 2,355 6.3 -18.5°
Sets 03:41:37 0° 206° (SSW) 3,283 7.1 -18.0°
